K9APR Weather Reports


Display with metric or nautical units.
time (UTC)temp
F
wind
direction
speed
MPH
gust
MPH
rain 1hr
in
rain 24hr
in
rain mn
in
humidity
%
barometer
mb
20260502130502 39 312 0.0 1.0 0.00 0.02 0.00 74 1020.0
20260502123803 37 306 1.0 2.0 0.00 0.03 0.00 75 1019.7
20260502122902 37 304 0.0 1.0 0.00 0.03 0.00 78 1019.6
20260502122002 36 256 0.0 1.0 0.00 0.04 0.00 80 1019.4
20260502121103 35 288 1.0 3.0 0.00 0.05 0.00 82 1019.4
20260502120203 34 356 0.0 0.0 0.00 0.06 0.00 84 1019.4
20260502115305 34 80 0.0 1.0 0.00 0.06 0.00 84 1019.3
20260502114403 34 81 0.0 0.0 0.00 0.06 0.00 85 1019.2
20260502113502 33 81 0.0 0.0 0.00 0.07 0.00 84 1019.2
20260502112603 34 81 0.0 0.0 0.00 0.08 0.00 84 1019.1
20260502111703 34 81 0.0 0.0 0.00 0.08 0.00 84 1019.0
20260502110803 34 81 0.0 0.0 0.00 0.08 0.00 84 1018.9
20260502105901 34 81 0.0 0.0 0.00 0.08 0.00 83 1018.9
20260502105035 34 81 0.0 0.0 0.00 0.08 0.00 83 1019.0
20260502105003 34 81 0.0 0.0 0.00 0.08 0.00 83 1019.0
20260502104102 34 81 0.0 0.0 0.00 0.08 0.00 83 1018.9
20260502103203 34 81 0.0 0.0 0.00 0.08 0.00 82 1018.9
20260502102305 34 81 0.0 0.0 0.00 0.08 0.00 82 1018.8
20260502101403 34 81 0.0 0.0 0.00 0.08 0.00 82 1018.8
20260502100503 34 81 0.0 0.0 0.00 0.08 0.00 81 1018.8
20260502091105 37 304 0.0 0.0 0.00 0.08 0.00 79 1018.7
20260502090202 37 303 0.0 0.0 0.00 0.08 0.00 79 1018.6
20260502071403 37 303 0.0 0.0 0.00 0.08 0.00 85 1018.6
20260502070502 37 303 0.0 0.0 0.00 0.08 0.00 84 1018.6
20260502065602 37 303 0.0 0.0 0.00 0.08 0.00 83 1018.6
20260502064703 36 303 0.0 0.0 0.00 0.08 0.00 81 1018.7
20260502063802 36 303 0.0 0.0 0.00 0.08 0.00 80 1018.7
20260502062902 37 303 0.0 0.0 0.00 0.08 0.00 81 1018.7
20260502062003 37 303 0.0 0.0 0.00 0.08 0.00 81 1018.8
20260502061104 37 303 0.0 0.0 0.00 0.08 0.00 82 1018.8
20260502060203 37 303 0.0 0.0 0.00 0.08 0.00 82 1018.8
20260502055305 37 303 0.0 0.0 0.00 0.08 0.00 82 1018.9
20260502054403 37 303 0.0 0.0 0.00 0.08 0.00 82 1019.0
20260502053502 37 303 0.0 0.0 0.00 0.08 0.00 81 1019.0
20260502052607 37 303 0.0 0.0 0.00 0.08 0.00 80 1019.1
20260502051702 37 303 0.0 0.0 0.00 0.08 0.00 81 1019.1
20260502050801 37 303 0.0 0.0 0.00 0.08 0.00 81 1019.0
20260502045902 37 303 0.0 0.0 0.00 0.08 0.00 81 1018.9
20260502045002 37 303 0.0 0.0 0.00 0.08 0.00 81 1018.9
20260502044103 38 303 0.0 0.0 0.00 0.08 0.00 81 1018.9
20260502043201 38 303 0.0 0.0 0.00 0.08 0.00 82 1019.0
20260502042306 38 303 0.0 0.0 0.00 0.08 0.00 83 1019.0
20260502041402 38 303 0.0 0.0 0.00 0.08 0.00 84 1018.9
20260502040502 38 303 0.0 0.0 0.00 0.08 0.00 84 1018.9
20260502035602 38 303 0.0 0.0 0.00 0.08 0.08 84 1018.8
20260502034703 38 303 0.0 0.0 0.00 0.08 0.08 84 1018.9
20260502033801 38 303 0.0 0.0 0.00 0.08 0.08 84 1018.9
20260502032905 38 303 0.0 0.0 0.00 0.08 0.08 83 1018.9
20260502032002 39 303 0.0 0.0 0.00 0.08 0.08 83 1019.0
20260502031103 39 303 0.0 0.0 0.00 0.08 0.08 83 1018.8
20260502030202 39 303 0.0 0.0 0.00 0.08 0.08 83 1018.9
20260502025948 39 303 0.0 0.0 0.00 0.08 0.08 83 1019.0
20260502025306 39 303 0.0 0.0 0.00 0.08 0.08 83 1019.0
20260502024403 40 303 0.0 0.0 0.00 0.08 0.08 82 1019.0
20260502023503 40 303 0.0 0.0 0.00 0.08 0.08 82 1018.9
20260502022603 40 303 0.0 0.0 0.00 0.08 0.08 82 1018.8
20260502021702 41 303 0.0 0.0 0.00 0.08 0.08 80 1018.6
20260502020801 41 303 0.0 0.0 0.00 0.08 0.08 80 1018.5
20260502015903 42 303 0.0 0.0 0.00 0.08 0.08 79 1018.2
20260502015003 43 303 0.0 0.0 0.00 0.08 0.08 77 1018.0
20260502014103 43 303 0.0 0.0 0.00 0.08 0.08 77 1017.7
20260502013202 44 303 0.0 1.0 0.00 0.08 0.08 77 1017.7
20260502011402 44 308 0.0 1.0 0.00 0.08 0.08 77 1017.5
20260502010503 44 308 0.0 0.0 0.00 0.08 0.08 76 1017.3
20260502005603 45 308 0.0 2.0 0.00 0.08 0.08 74 1017.2
20260502004702 45 308 0.0 1.0 0.00 0.08 0.08 74 1017.0
20260502003802 46 313 1.0 2.0 0.00 0.08 0.08 72 1016.9
20260502002902 47 321 1.0 2.0 0.00 0.08 0.08 70 1016.8
20260502002003 48 319 1.0 2.0 0.00 0.08 0.08 68 1016.7
20260502001101 49 321 0.0 1.0 0.00 0.08 0.08 69 1016.8
20260502000203 48 306 1.0 3.0 0.00 0.08 0.08 69 1016.9
20260501235305 47 311 1.0 3.0 0.00 0.08 0.08 71 1017.0
20260501234403 48 310 2.0 3.0 0.00 0.08 0.08 69 1017.0
20260501233502 48 314 2.0 3.0 0.00 0.08 0.08 65 1017.0
20260501232603 49 307 5.0 8.0 0.00 0.08 0.08 61 1016.7
20260501231702 49 301 5.0 7.0 0.00 0.08 0.08 60 1016.5
20260501230802 50 308 3.0 6.0 0.00 0.08 0.08 61 1016.5
20260501225902 50 310 3.0 6.0 0.00 0.08 0.08 62 1016.5
20260501225001 51 304 7.0 8.0 0.00 0.08 0.08 60 1016.4
20260501224101 51 301 7.0 8.0 0.00 0.08 0.08 60 1016.4
20260501223202 51 309 6.0 9.0 0.00 0.08 0.08 60 1016.5
20260501222305 51 305 5.0 6.0 0.00 0.08 0.08 61 1016.4
20260501221403 50 312 5.0 6.0 0.00 0.08 0.08 61 1016.4
20260501220502 51 317 3.0 5.0 0.00 0.08 0.08 60 1016.4
20260501215601 51 305 3.0 5.0 0.00 0.08 0.08 61 1016.5
20260501214703 51 300 5.0 7.0 0.00 0.08 0.08 60 1016.5
20260501213802 52 315 2.0 3.0 0.00 0.08 0.08 59 1016.6
20260501212902 51 298 5.0 7.0 0.00 0.08 0.08 60 1016.6
20260501212001 49 305 5.0 6.0 0.00 0.08 0.08 64 1016.5
20260501211103 50 304 2.0 3.0 0.00 0.08 0.08 63 1016.4
20260501210201 50 307 5.0 7.0 0.00 0.08 0.08 60 1016.4
20260501205305 51 308 5.0 7.0 0.00 0.08 0.08 64 1016.5
20260501204403 50 303 3.0 5.0 0.00 0.08 0.08 64 1016.5
20260501203502 49 314 3.0 3.0 0.00 0.08 0.08 62 1016.6
20260501202601 50 312 3.0 6.0 0.00 0.08 0.08 63 1016.7
20260501201703 51 307 7.0 8.0 0.00 0.08 0.08 61 1016.6
20260501200802 51 300 2.0 5.0 0.00 0.08 0.08 59 1016.7
20260501195901 51 284 2.0 10.0 0.00 0.08 0.08 65 1016.7
20260501195002 50 304 3.0 6.0 0.00 0.08 0.08 64 1016.6
20260501194102 50 333 1.0 2.0 0.00 0.08 0.08 65 1016.6
20260501193203 49 324 2.0 2.0 0.00 0.08 0.08 65 1016.6
20260501192306 50 308 3.0 6.0 0.00 0.08 0.08 62 1016.5
20260501191403 51 304 6.0 8.0 0.00 0.08 0.08 65 1016.5
20260501190503 50 303 6.0 7.0 0.00 0.08 0.08 67 1016.5
20260501185603 50 309 5.0 6.0 0.00 0.08 0.08 70 1016.5
20260501184702 49 303 3.0 6.0 0.00 0.08 0.08 67 1016.4
20260501183803 49 309 5.0 8.0 0.00 0.08 0.08 69 1016.3
20260501182903 48 300 5.0 6.0 0.00 0.08 0.08 71 1016.3
20260501182001 48 306 6.0 9.0 0.00 0.08 0.08 71 1016.2
20260501181103 48 306 3.0 6.0 0.00 0.08 0.08 74 1016.2
20260501180203 48 334 1.0 3.0 0.00 0.08 0.08 75 1016.1
20260501174405 47 309 3.0 5.0 0.00 0.08 0.08 78 1016.0
20260501174401 47 309 3.0 5.0 0.00 0.08 0.08 78 1016.0
20260501173502 47 312 5.0 7.0 0.00 0.08 0.08 76 1015.9
20260501172601 47 22 1.0 2.0 0.00 0.08 0.08 78 1015.7
20260501171702 47 312 6.0 8.0 0.00 0.08 0.08 80 1015.7
20260501170802 46 313 5.0 5.0 0.00 0.08 0.08 79 1015.7
20260501165902 45 316 3.0 3.0 0.00 0.08 0.08 81 1015.6
20260501165003 44 308 5.0 7.0 0.00 0.08 0.08 81 1015.7
20260501164102 44 314 5.0 7.0 0.00 0.08 0.08 82 1015.6
20260501163202 45 303 8.0 12.0 0.00 0.08 0.08 82 1015.5
20260501162305 45 306 8.0 12.0 0.00 0.08 0.08 81 1015.2
20260501161402 45 306 7.0 9.0 0.00 0.08 0.08 82 1015.0
20260501160501 45 306 6.0 7.0 0.00 0.08 0.08 82 1015.0
20260501155602 45 305 2.0 3.0 0.00 0.08 0.08 83 1014.8
20260501153803 45 304 6.0 7.0 0.00 0.08 0.08 82 1014.5
20260501152901 45 308 8.0 9.0 0.00 0.08 0.08 83 1014.4
20260501152003 45 307 7.0 12.0 0.00 0.08 0.08 83 1014.3
20260501151103 46 300 10.0 15.0 0.00 0.08 0.08 82 1014.3
20260501150201 46 313 9.0 13.0 0.00 0.08 0.08 82 1014.0
20260501145305 46 311 7.0 9.0 0.00 0.08 0.08 83 1013.8